Regional Weather Roundup
Issued by NWS Kansas City/Pleasant Hill, MO

Home | Current Version | Previous Version | Text Only | Print | Product List | Glossary On
Versions: 1 2 3 4 5 6 7 8 9 10 11 12 13 14 15 16 17 18 19 20 21 22 23 24 25 26 27 28 29 30 31 32 33 34 35 36 37 38 39 40 41 42 43 44 45 46 47 48 49 50
000
ASUS43 KEAX 281711
RWREAX

WEATHER ROUNDUP FOR EASTERN KANSAS AND NORTHWEST MISSOURI
NATIONAL WEATHER SERVICE KANSAS CITY/PLEASANT HILL MO
1200 PM CDT MON JUL 28 2014

KSZ040-057-103>105-MOZ028-029-037-043-281800-
...KANSAS CITY METROPOLITAN AREA...

CITY           SKY/WX    TMP DP  RH WIND       PRES   REMARKS
K.C. INTL      PTSUNNY   75  61  61 N8        30.24R
K.C. DOWNTOWN  PTSUNNY   76  62  62 VRB7      30.22F
LEES SUMMIT    MOSUNNY   77  60  55 N10G16    30.23S
OLATHE - IXD   MOSUNNY   74  59  59 N10G16    30.24S
OLATHE - OJC   MOSUNNY   75  59  57 N8        30.23S
LAWRENCE       MOSUNNY   79  60  52 VRB7G17   30.24S

$$

MOZ001>008-011>017-020>025-030>033-038>040-044>046-053-054-281800-
...NORTHERN AND CENTRAL MISSOURI...

CITY           SKY/WX    TMP DP  RH WIND       PRES   REMARKS
ST. JOSEPH     PTSUNNY   71  62  73 NW8       30.25R
MOSBY          PTSUNNY   73  61  64 N7        30.22S
WHITEMAN AFB   PTSUNNY   73  50  43 N6        30.20S
CLINTON        MOSUNNY   77  63  61 NW8       30.21S
SEDALIA        PTSUNNY   76  62  62 N12       30.20S
WARSAW         NOT AVBL
MARSHALL       MOSUNNY   77  63  61 N9        30.20S
CHILLICOTHE      N/A     75  59  57 VRB7      30.22R
KIRKSVILLE     PTSUNNY   72  57  59 N12       30.21S

$$

MOZ041-047>049-056>058-063>065-088>090-097-281800-
...EASTERN AND SOUTHERN MISSOURI...

CITY           SKY/WX    TMP DP  RH WIND       PRES   REMARKS
ST. LOUIS INTL PTSUNNY   75  63  66 N8        30.12S
SPIRIT OF STL  PTSUNNY   76  59  55 N10       30.11S
COLUMBIA       PTSUNNY   78  60  53 N9G18     30.17S
JEFFERSON CITY PTSUNNY   76  59  55 NW10      30.16R
HANNIBAL       CLOUDY    72  59  64 N9        30.17
ROLLA          MOSUNNY   77  58  51 N8        30.15R
LEBANON        MOSUNNY   79  59  50 N7        30.19S
OSAGE BEACH    PTSUNNY   77  57  50 NW8       30.18R
SPRINGFIELD    SUNNY     77  56  48 NW5       30.20S
BRANSON        MOSUNNY   81  57  44 N9        30.21F
NEVADA         SUNNY     77  61  57 N7        30.24S
JOPLIN         SUNNY     80  57  45 N10       30.23S
WEST PLAINS    SUNNY     79  59  50 N7        30.17S

$$

IAZ060-094-KSZ022-034>040-054-083-096-NEZ052-066-093-281800-
...KANSAS...SOUTHEAST NEBRASKA AND IOWA...

CITY           SKY/WX    TMP DP  RH WIND       PRES   REMARKS
TOPEKA         MOSUNNY   78  57  48 N12       30.26S
MANHATTAN      SUNNY     76  57  51 VRB5      30.28F
EMPORIA        SUNNY     76  57  51 NW9G20    30.27F
CHANUTE        SUNNY     79  60  52 NW13G18   30.26S
WICHITA        MOSUNNY   80  59  48 NW8       30.29F
OMAHA          PTSUNNY   71  56  58 N10       30.27S
LINCOLN        MOSUNNY   75  54  47 N14       30.30S
FALLS CITY     PTSUNNY   71  58  63 NW12      30.26R
LAMONI         PTSUNNY   70  57  63 N6        30.23S
DES MOINES     PTSUNNY   75  53  46 E6        30.22R

$$



USA.gov is the U.S. government's official web portal to all federal, state and local government web resources and services.